Regional Weather Roundup
Issued by NWS

Home | Current Version | Previous Version | Text Only | Print | Product List | Glossary On
Versions: 1 2 3 4 5 6 7 8 9 10 11 12 13 14 15 16 17 18 19 20 21 22 23 24 25 26 27 28 29 30 31 32 33 34 35 36 37 38 39 40 41 42 43 44 45 46 47 48 49 50
000
ASUS44 KFWD 292001
RWRTX
NORTH TEXAS HOURLY WEATHER ROUNDUP
NATIONAL WEATHER SERVICE FORT WORTH TX
300 PM CDT SUN MAY 29 2016

NOTE: "FAIR" INDICATES FEW OR NO CLOUDS BELOW 12,000 FEET WITH NO
SIGNIFICANT WEATHER AND/OR OBSTRUCTIONS TO VISIBILITY.

TXZ118-119-292100-
DALLAS/FORT WORTH METROPLEX

CITY           SKY/WX    TMP DP  RH WIND       PRES   REMARKS
DFW AIRPORT    CLOUDY    87  67  51 SE9       30.06S HX  90
DALLAS LOVE    CLOUDY    86  69  56 SE9       30.06S HX  90
FTW MEACHAM    MOSUNNY   90  64  42 SE9       30.05F HX  91
DAL-EXECUTIVE  CLOUDY    87  70  56 SE8G16    30.06S HX  92
FTW-ALLIANCE   MOSUNNY   90  66  45 VRB7      30.05F HX  92
FTW-NAS-JRB    MOSUNNY   89  68  49 S9        30.05F HX  93
FTW-SPINKS     MOSUNNY   88  70  55 E3        30.07F HX  92
ARLINGTON      MOSUNNY   91  68  46 SE13      30.06S HX  95
GRAND PRAIRIE  SUNNY     86  66  51 E8        30.07F
ADDISON        PTSUNNY   84  68  58 E8        30.08R
MESQUITE       SUNNY     84  70  61 SE7       30.07S
LANCASTER      MOSUNNY   83  70  64 SE7       30.07F
$$

TXZ091>094-102>105-117-120-121-131>134-292100-
NORTH CENTRAL TEXAS

CITY           SKY/WX    TMP DP  RH WIND       PRES   REMARKS
BRIDGEPORT     SUNNY     87  64  46 S7        30.08F
DECATUR        SUNNY     86  57  37 SE8       30.08F
DENTON         CLOUDY    87  64  46 E8        30.06F
MCKINNEY       PTSUNNY   80  67  64 E6        30.08S
ROCKWALL       CLOUDY    82  71  68 SE6       30.08R
TERRELL        CLOUDY    84  70  62 SE8       30.07S
WAXAHACHIE     MOSUNNY   87  71  58 SE5       30.07F HX  93
$$

TXZ083>090-098>101-113>116-127>130-139>142-154-155-292100-
WESTERN NORTH TEXAS

CITY           SKY/WX    TMP DP  RH WIND       PRES   REMARKS
WICHITA FALLS  SUNNY     88  61  40 NE9       30.04F
WF-KICKAPOO    SUNNY     89  59  37 E10       30.06F
VERNON         SUNNY     87  52  29 E3        30.06F
ABILENE        SUNNY     86  64  47 S13       30.08F
MINERAL WELLS  SUNNY     85  65  51 S6        30.06F
STEPHENVILLE   CLOUDY    85  64  50 S3        30.11S
COMANCHE       SUNNY     87  63  45 CALM      30.08S
COLEMAN        SUNNY     89  58  35 SW10      30.08S
$$

TXZ143>147-156>162-174-175-292100-
CENTRAL TEXAS

CITY           SKY/WX    TMP DP  RH WIND       PRES   REMARKS
WACO           PTSUNNY   89  68  49 S12       30.04F HX  93
WACO-TSTC      SUNNY     90  68  48 S9        30.05F HX  93
WACO-MCGREGOR  CLOUDY    88  70  55 SE14      30.05F HX  93
HILLSBORO      MOSUNNY   87  67  51 SE9       30.05F HX  90
CORSICANA      CLOUDY    89  70  53 S9        30.07S HX  94
MEXIA          PTSUNNY   87  69  54 S16       30.05F HX  91
HEARNE         SUNNY     87  71  58 SE8       30.06S HX  92
CAMERON        MOSUNNY   88  71  56 SE9       30.06R HX  93
TEMPLE         CLOUDY    85  68  56 SE13      30.06S
KILLEEN        NOT AVBL
KILLEEN-SKYLRK CLOUDY    87  67  51 SE15      30.06F HX  90
HAMILTON       SUNNY     88  61  40 S7        30.09S
$$

TXZ095>097-106>112-122>126-135>138-148>153-164>167-292100-
EAST TEXAS

CITY           SKY/WX    TMP DP  RH WIND       PRES   REMARKS
PARIS          CLOUDY    86  64  48 E7        30.08F
SULPHUR SPRNGS CLOUDY    85  69  57 E7        30.09S
MINEOLA        CLOUDY    88  72  58 SE9       30.07F HX  94
TYLER          CLOUDY    87  68  52 SE8       30.07F HX  90
LONGVIEW       CLOUDY    85  71  63 E8        30.06F HX  90
PALESTINE      MOSUNNY   88  74  62 S8        30.08S HX  96
JACKSONVILLE   CLOUDY    85  72  64 E6        30.11S HX  91
NACOGDOCHES    MOSUNNY   84  72  65 SE6       30.08S
LUFKIN         MOSUNNY   86  71  60 E7        30.06F HX  91
$$

SUPPLEMENTAL OBSERVATIONS (CENTRAL)

CITY           SKY/WX    TMP DP  RH WIND       PRES   REMARKS
$$

SUPPLEMENTAL OBSERVATIONS (WEST)

CITY           SKY/WX    TMP DP  RH WIND       PRES   REMARKS
$$

SUPPLEMENTAL OBSERVATIONS (EAST)

CITY           SKY/WX    TMP DP  RH WIND       PRES   REMARKS
$$

SUPPLEMENTAL OBSERVATIONS ARE A COLLECTION OF AUTOMATED INSTRUMENTS
THAT ARE MAINTAINED BY A VARIETY OF FEDERAL AND STATE AGENCIES.
CERTAIN ELEMENTS...SUCH AS HUMIDITY VALUES AND SUSTAINED WIND
SPEEDS...MAY BE APPROXIMATED.





USA.gov is the U.S. government's official web portal to all federal, state and local government web resources and services.